Time,TemperatureF,DewpointF,PressureIn,WindDirection,WindDirectionDegrees,WindSpeedMPH,WindSpeedGustMPH,Humidity,HourlyPrecipIn,Conditions,Clouds,dailyrainin,SoftwareType,DateUTC
2013-07-18 00:00:00,73.0,50.0,30.02,WSW,251,13.0,19.0,44,0.00,,,0.04,weatherlink.com 1.10,2013-07-18 06:00:00,
2013-07-18 00:15:00,72.5,49.0,30.03,WSW,246,11.0,16.0,43,0.00,,,0.00,weatherlink.com 1.10,2013-07-18 06:15:00,
2013-07-18 00:30:00,73.0,47.0,30.04,West,260,11.0,17.0,40,0.00,,,0.00,weatherlink.com 1.10,2013-07-18 06:30:00,
2013-07-18 00:45:00,73.7,47.0,30.04,SW,222,9.0,10.0,39,0.00,,,0.00,weatherlink.com 1.10,2013-07-18 06:45:00,
2013-07-18 01:00:00,73.9,46.0,30.05,SSW,192,6.0,9.0,37,0.00,,,0.00,weatherlink.com 1.10,2013-07-18 07:00:00,
2013-07-18 01:15:00,71.8,50.0,30.07,NE,53,12.0,22.0,47,0.00,,,0.00,weatherlink.com 1.10,2013-07-18 07:15:00,
2013-07-18 01:30:00,67.9,53.0,30.08,NE,36,6.0,16.0,60,0.00,,,0.00,weatherlink.com 1.10,2013-07-18 07:30:00,
2013-07-18 01:45:00,67.3,54.0,30.08,WNW,295,3.0,6.0,62,0.00,,,0.00,weatherlink.com 1.10,2013-07-18 07:45:00,
2013-07-18 02:00:00,66.6,53.0,30.07,West,266,4.0,7.0,63,0.00,,,0.00,weatherlink.com 1.10,2013-07-18 08:00:00,
2013-07-18 02:15:00,66.1,53.0,30.07,SW,220,4.0,6.0,64,0.00,,,0.00,weatherlink.com 1.10,2013-07-18 08:15:00,
2013-07-18 02:30:00,65.5,54.0,30.06,SW,227,3.0,4.0,67,0.00,,,0.00,weatherlink.com 1.10,2013-07-18 08:30:00,
2013-07-18 02:45:00,64.3,53.0,30.05,SW,215,4.0,7.0,68,0.00,,,0.00,weatherlink.com 1.10,2013-07-18 08:45:00,
2013-07-18 03:00:00,64.5,54.0,30.04,SW,216,0.0,6.0,68,0.00,,,0.00,weatherlink.com 1.10,2013-07-18 09:00:00,
2013-07-18 03:15:00,65.0,53.0,30.04,SW,215,5.0,6.0,65,0.00,,,0.00,weatherlink.com 1.10,2013-07-18 09:15:00,
2013-07-18 03:30:00,65.5,52.0,30.03,SSW,202,4.0,8.0,63,0.00,,,0.00,weatherlink.com 1.10,2013-07-18 09:30:00,
2013-07-18 03:45:00,66.1,52.0,30.03,SSW,203,4.0,8.0,61,0.00,,,0.00,weatherlink.com 1.10,2013-07-18 09:45:00,
2013-07-18 04:00:00,65.8,52.0,30.02,SW,224,4.0,7.0,61,0.00,,,0.00,weatherlink.com 1.10,2013-07-18 10:00:00,
2013-07-18 04:15:00,64.8,51.0,30.02,SW,218,4.0,6.0,62,0.00,,,0.00,weatherlink.com 1.10,2013-07-18 10:15:00,
2013-07-18 04:30:00,64.7,51.0,30.02,SW,218,3.0,3.0,62,0.00,,,0.00,weatherlink.com 1.10,2013-07-18 10:30:00,
2013-07-18 04:45:00,64.2,51.0,30.02,SW,218,0.0,1.0,63,0.00,,,0.00,weatherlink.com 1.10,2013-07-18 10:45:00,
2013-07-18 05:00:00,63.7,51.0,30.02,SW,218,1.0,2.0,64,0.00,,,0.00,weatherlink.com 1.10,2013-07-18 11:00:00,
2013-07-18 05:15:00,62.0,50.0,30.02,SW,218,1.0,3.0,66,0.00,,,0.00,weatherlink.com 1.10,2013-07-18 11:15:00,
2013-07-18 05:30:00,61.6,50.0,30.02,SW,218,0.0,3.0,67,0.00,,,0.00,weatherlink.com 1.10,2013-07-18 11:30:00,
2013-07-18 05:45:00,60.5,51.0,30.03,SW,219,2.0,5.0,70,0.00,,,0.00,weatherlink.com 1.10,2013-07-18 11:45:00,
2013-07-18 06:00:00,60.2,50.0,30.03,SW,228,3.0,5.0,70,0.00,,,0.00,weatherlink.com 1.10,2013-07-18 12:00:00,
2013-07-18 06:16:00,60.5,50.0,30.03,SSW,209,2.0,4.0,69,0.00,,,0.00,weatherlink.com 1.10,2013-07-18 12:16:00,
2013-07-18 06:30:00,60.7,50.0,30.03,SSW,210,3.0,4.0,68,0.00,,,0.00,weatherlink.com 1.10,2013-07-18 12:30:00,
2013-07-18 06:45:00,60.4,51.0,30.03,SSW,210,3.0,4.0,70,0.00,,,0.00,weatherlink.com 1.10,2013-07-18 12:45:00,
2013-07-18 07:00:00,61.0,50.0,30.03,SW,216,3.0,6.0,68,0.00,,,0.00,weatherlink.com 1.10,2013-07-18 13:00:00,
2013-07-18 07:15:00,61.6,50.0,30.04,SW,235,5.0,6.0,65,0.00,,,0.00,weatherlink.com 1.10,2013-07-18 13:15:00,
2013-07-18 07:30:00,62.3,51.0,30.04,SW,235,0.0,3.0,67,0.00,,,0.00,weatherlink.com 1.10,2013-07-18 13:30:00,
2013-07-18 07:45:00,63.1,51.0,30.04,SW,235,0.0,0.0,64,0.00,,,0.00,weatherlink.com 1.10,2013-07-18 13:45:00,
2013-07-18 08:01:00,66.4,54.0,30.03,SW,235,0.0,1.0,64,0.00,,,0.00,weatherlink.com 1.10,2013-07-18 14:01:00,
2013-07-18 08:15:00,73.0,52.0,30.03,SW,235,0.0,2.0,48,0.00,,,0.00,weatherlink.com 1.10,2013-07-18 14:15:00,
2013-07-18 08:31:00,76.3,50.0,30.03,ESE,102,1.0,3.0,40,0.00,,,0.00,weatherlink.com 1.10,2013-07-18 14:31:00,
2013-07-18 08:46:00,76.5,50.0,30.03,ESE,102,2.0,6.0,40,0.00,,,0.00,weatherlink.com 1.10,2013-07-18 14:46:00,
2013-07-18 09:01:00,75.8,52.0,30.02,ENE,75,2.0,7.0,43,0.00,,,0.00,weatherlink.com 1.10,2013-07-18 15:01:00,
2013-07-18 09:16:00,75.6,53.0,30.02,East,89,2.0,5.0,46,0.00,,,0.00,weatherlink.com 1.10,2013-07-18 15:16:00,
2013-07-18 09:31:00,77.2,52.0,30.02,ESE,102,3.0,7.0,41,0.00,,,0.00,weatherlink.com 1.10,2013-07-18 15:31:00,
2013-07-18 09:46:00,78.1,53.0,30.01,East,100,6.0,8.0,42,0.00,,,0.00,weatherlink.com 1.10,2013-07-18 15:46:00,
2013-07-18 10:01:00,78.5,51.0,30.01,SE,125,4.0,8.0,38,0.00,,,0.00,weatherlink.com 1.10,2013-07-18 16:01:00,
2013-07-18 10:16:00,78.6,51.0,30.00,East,83,3.0,8.0,38,0.00,,,0.00,weatherlink.com 1.10,2013-07-18 16:16:00,
2013-07-18 10:31:00,79.9,49.0,30.00,East,97,2.0,8.0,34,0.00,,,0.00,weatherlink.com 1.10,2013-07-18 16:31:00,
2013-07-18 10:46:00,81.1,46.0,30.00,East,79,2.0,7.0,29,0.00,,,0.00,weatherlink.com 1.10,2013-07-18 16:46:00,
2013-07-18 11:01:00,83.8,45.0,29.99,ESE,104,2.0,5.0,26,0.00,,,0.00,weatherlink.com 1.10,2013-07-18 17:01:00,
2013-07-18 11:16:00,83.0,47.0,29.99,East,85,7.0,9.0,28,0.00,,,0.00,weatherlink.com 1.10,2013-07-18 17:16:00,
2013-07-18 11:31:00,82.6,49.0,29.98,ENE,66,4.0,11.0,31,0.00,,,0.00,weatherlink.com 1.10,2013-07-18 17:31:00,
2013-07-18 11:46:00,83.8,48.0,29.98,ESE,104,3.0,13.0,29,0.00,,,0.00,weatherlink.com 1.10,2013-07-18 17:46:00,
2013-07-18 12:01:00,83.6,47.0,29.97,East,98,5.0,13.0,28,0.00,,,0.00,weatherlink.com 1.10,2013-07-18 18:01:00,
2013-07-18 12:16:00,84.7,46.0,29.96,ESE,112,0.0,10.0,26,0.00,,,0.00,weatherlink.com 1.10,2013-07-18 18:16:00,
2013-07-18 12:31:00,85.1,46.0,29.96,ESE,104,8.0,9.0,25,0.00,,,0.00,weatherlink.com 1.10,2013-07-18 18:31:00,
2013-07-18 12:46:00,86.1,45.0,29.96,ENE,76,5.0,13.0,24,0.00,,,0.00,weatherlink.com 1.10,2013-07-18 18:46:00,
2013-07-18 13:01:00,86.5,42.0,29.95,ESE,103,4.0,10.0,21,0.00,,,0.00,weatherlink.com 1.10,2013-07-18 19:01:00,
2013-07-18 13:16:00,86.5,41.0,29.95,East,100,6.0,11.0,20,0.00,,,0.00,weatherlink.com 1.10,2013-07-18 19:16:00,
2013-07-18 13:31:00,88.2,41.0,29.94,SE,130,4.0,10.0,19,0.00,,,0.00,weatherlink.com 1.10,2013-07-18 19:31:00,
2013-07-18 13:46:00,88.6,41.0,29.93,East,83,8.0,11.0,19,0.00,,,0.00,weatherlink.com 1.10,2013-07-18 19:46:00,
2013-07-18 14:01:00,88.2,41.0,29.93,East,91,9.0,21.0,19,0.00,,,0.00,weatherlink.com 1.10,2013-07-18 20:01:00,
2013-07-18 14:16:00,88.2,40.0,29.92,ESE,103,8.0,13.0,18,0.00,,,0.00,weatherlink.com 1.10,2013-07-18 20:16:00,
2013-07-18 14:31:00,90.1,44.0,29.92,ENE,61,3.0,8.0,20,0.00,,,0.00,weatherlink.com 1.10,2013-07-18 20:31:00,
2013-07-18 14:46:00,89.0,40.0,29.91,NE,56,11.0,13.0,18,0.00,,,0.00,weatherlink.com 1.10,2013-07-18 20:46:00,
2013-07-18 15:01:00,88.0,39.0,29.91,ENE,75,3.0,9.0,18,0.00,,,0.00,weatherlink.com 1.10,2013-07-18 21:01:00,
2013-07-18 15:16:00,89.7,39.0,29.91,NNE,33,2.0,11.0,17,0.00,,,0.00,weatherlink.com 1.10,2013-07-18 21:16:00,
2013-07-18 15:31:00,88.6,38.0,29.90,NNE,30,6.0,11.0,17,0.00,,,0.00,weatherlink.com 1.10,2013-07-18 21:31:00,
2013-07-18 15:46:00,88.6,37.0,29.90,NW,314,3.0,8.0,16,0.00,,,0.00,weatherlink.com 1.10,2013-07-18 21:46:00,
2013-07-18 16:01:00,91.0,39.0,29.89,South,185,1.0,7.0,16,0.00,,,0.00,weatherlink.com 1.10,2013-07-18 22:01:00,
2013-07-18 16:17:00,91.0,36.0,29.89,NNE,27,6.0,11.0,14,0.00,,,0.00,weatherlink.com 1.10,2013-07-18 22:17:00,
2013-07-18 16:32:00,91.0,37.0,29.88,East,83,7.0,11.0,15,0.00,,,0.00,weatherlink.com 1.10,2013-07-18 22:32:00,
2013-07-18 16:47:00,90.3,38.0,29.88,NE,40,2.0,11.0,16,0.00,,,0.00,weatherlink.com 1.10,2013-07-18 22:47:00,
2013-07-18 17:02:00,90.5,31.0,29.87,NNE,24,8.0,13.0,12,0.00,,,0.00,weatherlink.com 1.10,2013-07-18 23:02:00,
2013-07-18 17:17:00,90.5,29.0,29.87,NNE,31,5.0,16.0,11,0.00,,,0.00,weatherlink.com 1.10,2013-07-18 23:17:00,
2013-07-18 17:32:00,89.5,28.0,29.87,NNE,26,8.0,17.0,11,0.00,,,0.00,weatherlink.com 1.10,2013-07-18 23:32:00,
2013-07-18 17:47:00,90.1,27.0,29.88,North,4,10.0,18.0,10,0.00,,,0.00,weatherlink.com 1.10,2013-07-18 23:47:00,
2013-07-18 18:02:00,90.1,29.0,29.88,NW,321,4.0,13.0,11,0.00,,,0.00,weatherlink.com 1.10,2013-07-19 00:02:00,
2013-07-18 18:17:00,89.5,26.0,29.88,NE,49,8.0,16.0,10,0.00,,,0.00,weatherlink.com 1.10,2013-07-19 00:17:00,
2013-07-18 18:32:00,89.7,29.0,29.88,NNE,12,9.0,14.0,11,0.00,,,0.00,weatherlink.com 1.10,2013-07-19 00:32:00,
2013-07-18 18:47:00,89.5,28.0,29.88,ENE,75,9.0,17.0,11,0.00,,,0.00,weatherlink.com 1.10,2013-07-19 00:47:00,
2013-07-18 19:02:00,89.0,26.0,29.88,NE,52,14.0,15.0,10,0.00,,,0.00,weatherlink.com 1.10,2013-07-19 01:02:00,
2013-07-18 19:17:00,87.6,27.0,29.88,NE,34,3.0,10.0,11,0.00,,,0.00,weatherlink.com 1.10,2013-07-19 01:17:00,
2013-07-18 19:32:00,86.7,30.0,29.88,NE,54,5.0,12.0,13,0.00,,,0.00,weatherlink.com 1.10,2013-07-19 01:32:00,
2013-07-18 19:47:00,87.2,31.0,29.89,NNE,28,4.0,8.0,13,0.00,,,0.00,weatherlink.com 1.10,2013-07-19 01:47:00,
2013-07-18 20:02:00,87.0,29.0,29.89,North,354,2.0,8.0,12,0.00,,,0.00,weatherlink.com 1.10,2013-07-19 02:02:00,
2013-07-18 20:17:00,85.1,31.0,29.90,North,359,5.0,7.0,14,0.00,,,0.00,weatherlink.com 1.10,2013-07-19 02:17:00,
2013-07-18 20:32:00,83.2,42.0,29.90,NE,43,6.0,8.0,23,0.00,,,0.00,weatherlink.com 1.10,2013-07-19 02:32:00,
2013-07-18 20:47:00,82.4,42.0,29.90,NNE,22,6.0,9.0,24,0.00,,,0.00,weatherlink.com 1.10,2013-07-19 02:47:00,
2013-07-18 21:02:00,81.2,42.0,29.91,NW,305,0.0,7.0,25,0.00,,,0.00,weatherlink.com 1.10,2013-07-19 03:02:00,
2013-07-18 21:17:00,77.0,42.0,29.92,SW,234,2.0,8.0,29,0.00,,,0.00,weatherlink.com 1.10,2013-07-19 03:17:00,
2013-07-18 21:32:00,76.0,43.0,29.93,SW,235,2.0,4.0,31,0.00,,,0.00,weatherlink.com 1.10,2013-07-19 03:32:00,
2013-07-18 21:47:00,74.2,43.0,29.94,NNW,328,0.0,4.0,33,0.00,,,0.00,weatherlink.com 1.10,2013-07-19 03:47:00,
2013-07-18 22:02:00,75.3,43.0,29.96,NNE,24,3.0,4.0,32,0.00,,,0.00,weatherlink.com 1.10,2013-07-19 04:02:00,
2013-07-18 22:17:00,76.8,43.0,29.97,NW,316,2.0,8.0,30,0.00,,,0.00,weatherlink.com 1.10,2013-07-19 04:17:00,
2013-07-18 22:32:00,76.1,45.0,29.98,WSW,257,6.0,9.0,33,0.00,,,0.00,weatherlink.com 1.10,2013-07-19 04:32:00,
2013-07-18 22:47:00,76.0,46.0,29.98,NNW,335,2.0,6.0,34,0.00,,,0.00,weatherlink.com 1.10,2013-07-19 04:47:00,
2013-07-18 23:02:00,75.6,47.0,29.98,NW,312,2.0,5.0,36,0.00,,,0.00,weatherlink.com 1.10,2013-07-19 05:02:00,
2013-07-18 23:17:00,73.9,47.0,29.98,West,263,2.0,4.0,39,0.00,,,0.00,weatherlink.com 1.10,2013-07-19 05:17:00,
2013-07-18 23:32:00,72.5,48.0,29.99,West,263,1.0,2.0,42,0.00,,,0.00,weatherlink.com 1.10,2013-07-19 05:32:00,
2013-07-18 23:47:00,70.1,49.0,29.99,SW,221,3.0,5.0,48,0.00,,,0.00,weatherlink.com 1.10,2013-07-19 05:47:00,